Sedalia, MO

1:17 PM CST on December 11, 2017 (GMT -0600)
Sedalia Memorial

Weather History for KDMO - December, 2013

Change the Weather History Date:

Tuesday, December 17, 2013

  Actual Average Record
Temperature  
Mean Temperature 38 °F 34 °F  
Max Temperature 48 °F 43 °F 65 °F (1941)
Min Temperature 27 °F 26 °F -12 °F (1989)
Degree Days  
Heating Degree Days 27 31  
Month to date heating degree days 574 483  
Since 1 July heating degree days 1523 1328  
Cooling Degree Days 0 0  
Month to date cooling degree days 0 0  
Year to date cooling degree days 1485 1490  
Moisture  
Dew Point 27 °F    
Average Humidity 71    
Maximum Humidity 92    
Minimum Humidity 49    
Precipitation  
Precipitation 0.00 in 0.07 in 0.45 in (1957)
Month to date precipitation 1.18 1.18  
Year to date precipitation 40.24 39.97  
Sea Level Pressure  
Sea Level Pressure 30.26 in    
Wind  
Wind Speed 8 mph (WNW)    
Max Wind Speed 18 mph    
Max Gust Speed 24 mph    
Visibility 9 miles    
Events      
T = Trace of Precipitation, MM = Missing Value Source: NWS Daily Summary

Daily Weather History Graph

Daily Weather History Graph

Search for Another Location

Airport or City:

Trip Planner

Search our weather history database for the weather conditions in past years. The results will help you decide how hot, cold, wet, or windy it might be!

Date:

Astronomy

Dec. 17, 2013 Rise Set
Actual Time 7:25 AM CST 4:53 PM CST
Civil Twilight 6:55 AM CST 5:22 PM CST
Nautical Twilight 6:21 AM CST 5:56 PM CST
Astronomical Twilight 5:49 AM CST 6:28 PM CST
Moon 5:32 PM CST (12/17) 7:22 AM CST (12/17)
Length of Visible Light 10h 27m
Length of Day
9h 27m
Full, 100% of the Moon is Illuminated
Dec 17
Full
Dec 25
Last Quarter
Jan 1
New
Jan 7
First Quarter
Jan 15
Full

Hourly Weather History & Observations

Time (CST) Temp. Windchill Dew Point Humidity Pressure Visibility Wind Dir Wind Speed Gust Speed Precip Events Conditions
12:53 AM 33.1 °F 27.7 °F 28.0 °F 82% 30.17 in 8.0 mi NW 5.8 mph - N/A   Clear
1:53 AM 32.0 °F 26.4 °F 27.0 °F 82% 30.18 in 8.0 mi North 5.8 mph - N/A   Clear
2:53 AM 30.9 °F 26.2 °F 27.0 °F 85% 30.18 in 8.0 mi North 4.6 mph - N/A   Clear
3:53 AM 30.9 °F 27.5 °F 27.0 °F 85% 30.17 in 8.0 mi NW 3.5 mph - N/A   Clear
4:53 AM 28.9 °F 25.2 °F 26.1 °F 89% 30.19 in 6.0 mi NW 3.5 mph - N/A   Clear
5:53 AM 28.9 °F 25.2 °F 26.1 °F 89% 30.21 in 6.0 mi West 3.5 mph - N/A   Clear
6:53 AM 28.9 °F 21.1 °F 26.1 °F 89% 30.22 in 5.0 mi SW 8.1 mph - N/A   Clear
7:53 AM 28.9 °F 22.8 °F 26.1 °F 89% 30.23 in 4.0 mi SW 5.8 mph - N/A   Clear
8:53 AM 34.0 °F 29.8 °F 28.9 °F 82% 30.26 in 7.0 mi WSW 4.6 mph - N/A   Clear
9:53 AM 39.0 °F 32.8 °F 28.9 °F 67% 30.27 in 10.0 mi West 9.2 mph - N/A   Clear
10:53 AM 43.0 °F 37.2 °F 28.9 °F 58% 30.29 in 10.0 mi West 10.4 mph - N/A   Clear
11:53 AM 45.0 °F 37.6 °F 30.0 °F 56% 30.27 in 10.0 mi WNW 17.3 mph - N/A   Clear
12:53 PM 46.9 °F - 32.0 °F 56% 30.25 in 10.0 mi WNW 15.0 mph 24.2 mph N/A   Clear
1:53 PM 46.9 °F - 34.0 °F 61% 30.25 in 10.0 mi NW 10.4 mph - N/A   Partly Cloudy
2:53 PM 46.0 °F 40.6 °F 30.0 °F 54% 30.26 in 10.0 mi NW 11.5 mph 20.7 mph N/A   Partly Cloudy
3:53 PM 44.1 °F 36.5 °F 26.1 °F 49% 30.29 in 10.0 mi WNW 17.3 mph 23.0 mph N/A   Clear
4:53 PM 39.9 °F 33.4 °F 27.0 °F 60% 30.30 in 10.0 mi WNW 10.4 mph - N/A   Clear
5:53 PM 37.9 °F 33.5 °F 26.1 °F 62% 30.31 in 10.0 mi WNW 5.8 mph - N/A   Clear
6:53 PM 35.1 °F 31.0 °F 26.1 °F 70% 30.32 in 10.0 mi NW 4.6 mph - N/A   Clear
7:53 PM 36.0 °F 33.3 °F 25.0 °F 64% 30.32 in 10.0 mi WNW 3.5 mph - N/A   Clear
8:53 PM 36.0 °F 33.3 °F 24.1 °F 62% 30.31 in 10.0 mi West 3.5 mph - N/A   Clear
9:53 PM 33.1 °F 26.9 °F 23.0 °F 66% 30.32 in 10.0 mi SW 6.9 mph - N/A   Clear
10:53 PM 32.0 °F 24.8 °F 21.9 °F 66% 30.31 in 10.0 mi SSW 8.1 mph - N/A   Clear
11:53 PM 30.9 °F 23.5 °F 21.0 °F 67% 30.29 in 10.0 mi SSW 8.1 mph - N/A   Clear